Location: Ariel
(45.9570°N, 122.5700°W)
Time: 03:03:44
(UTC-07:00)

Altair - Pass Details

Date: 21 July 2019
Orbit: 1501 x 1683 km, 47.2° (Epoch: 20 August)

Event Time Altitude Azimuth Distance (km) Brightness Sun altitude
Rises 19:33:37 0° 292° (WNW) 4,662 12.2 11.7°
Reaches altitude 10° 19:36:52 10° 285° (WNW) 3,694 13.2 11.1°
Maximum altitude 19:45:10 38° 222° (SW) 2,220 8.8 9.8°
Drops below altitude 10° 19:53:43 10° 159° (SSE) 3,802 9.2 8.4°
Sets 19:57:09 0° 151° (SSE) 4,811 9.6 7.8°
